THOR ABLESTAR DEB, 745

Orbit data source: Space-Track

THOR ABLESTAR DEB, 745 is space debris in LEO originally from a launch on Sat, 28 Sep 1963 UTC launched from the Air Force Western Test Range (AFWTR). Debris objects in space refer to the collection of defunct objects orbiting the Earth. Examples of debris include non-operational satellites, rocket bodies, and fragments generated from explosions, collisions, or faulty payload assembly.

Loading next visibility...
Identifier
745, 1963-038E
Orbit
LEO
Country
Flag of USUS
Related business
Manufacturer
Unknown
Mission
Spacecraft
Bus & Motor
Unknown
Mass
Unknown
Launch date (UTC)
1963-09-28 (63 years ago)
Launch vehicle
Unknown
Launch site
Air Force Western Test Range (AFWTR)
Object type
Payload
Rocket body
Debris
Shape & HBR
Unknown shape, 0.1 m
Radar Cross Section
Small (<0.1 m²)

Expand to show TLE details & history
Last TLE update: 12 hours ago

TLE from 12 hours ago
0 THOR ABLESTAR DEB
1 00745U 63038E   26120.09601708  .00000274  00000-0  38055-3 0  9995
2 00745  89.9858 336.2011 0019898  74.6027  80.0478 13.55587095 84919
Epoch: 2026-04-30T02:18Z
TLE epoch observation values (Epoch: 2026-04-30T02:18:15.875Z)
Latitude
25.1515°
Longitude
-96.41921°
Altitude
1,052.353 km
Speed
7.329 km/s
True Right ascension
10h 24m 46s
True Declination
25° 01' 29"
Sunlit
Object was in daylight at epoch
Visualization orbit readout
Latitude
Unknown
Longitude
Unknown
Altitude
Unknown
Speed
Unknown
Apparent Right ascension
Unknown
Apparent Declination
Unknown
Sunlit
N/A
Visualization observer readout
Local Sidereal Time
21:56:16
Azimuth
Unknown
Elevation
Unknown
Doppler factor
Unknown
Orbital elements
Apogee altitude
1,063.593 km
Perigee altitude
1,034.037 km
Semi-major axis
7,426.952 km
Eccentricity
0.00199
Inclination
89.9858°
RAAN
336.2011°
Arg. of periapsis
74.6027°
True anomaly
80.27248°
Mean anomaly
80.0478°
Eccentric anomaly
80.16013°
Mean motion
3.391 °/min
Orbital period
106.16 mins
BSTAR
0.00038055
Loading maneuver chart data...
Computing Atmospheric mass density...

Documentation

Showing up to 5 results
|